Flag for Germany Weather past 2 weeks in Eisenach, Thuringia, Germany

Now
58 °F

Overcast.


Feels Like: 58 °F
Forecast: 53 / 65 °F
Wind: 2 mph from South

Location: Meiningen

Current Time: Aug 31, 2014 at 12:32:55 AM

Latest Report: Aug 31, 2014 at 12:00 AM


Visibility: 13 mi

Pressure: 30.02 "Hg

Humidity: 93%

Dew point: 56 °F

Location of EisenachLocation

Historic Weather in Eisenach — Graph

°F

Eisenach temperature yesterday

Maximum temperature yesterday: 67 °F (at 3:00 PM)
Minimum temperature yesterday: 56 °F (at 6:00 AM)
Average temperature yesterday: 61 °F

Past Weeks' High & Low Weather Summary

 TemperatureHumidityPressure
High70 °F (Aug 29, 5:00 PM)98% (Aug 19, 8:00 AM)30.13 "Hg (Aug 19, 8:00 AM)
Low41 °F (Aug 22, 6:00 AM)35% (Aug 22, 4:00 PM)29.68 "Hg (Aug 26, 9:00 AM)
Average55 °F77%29.96 "Hg
* Reported Aug 15 10:00 PM — Aug 30 10:00 PM, Eisenach, Weather by CustomWeather, © 2014

Note: Actual official high and low records may vary slightly from our data, if they occured in-between our weather recording intervals... More about our weather records

Advertising

Eisenach weather history for previous 24 hours

 ConditionsComfort  
Time TempWeatherWind HumidityBarometerVisibility
10:00 PM
Aug 30
59 °FOvercast.1 mph85%30.03 "Hg19 mi
9:00 PM61 °FLight rain. Overcast.1 mph78%30.01 "Hg25 mi
8:00 PM63 °FOvercast.2 mph69%30.01 "Hg43 mi
7:00 PM64 °FOvercast.2 mph65%30.01 "Hg40 mi
6:00 PM65 °FOvercast.2 mph63%30.02 "Hg40 mi
4:00 PM65 °FOvercast.3 mph65%30.03 "Hg40 mi
3:00 PM67 °FPartly sunny.5 mph58%30.03 "Hg34 mi
2:00 PM64 °FOvercast.3 mph64%30.05 "Hg34 mi
1:00 PM65 °FOvercast.5 mph61%30.05 "Hg34 mi
12:00 PM63 °FOvercast.3 mph65%30.06 "Hg31 mi
10:00 AM62 °FOvercast.2 mph77%30.06 "Hg19 mi
9:00 AM58 °FFog.2 mph92%30.07 "Hg16 mi
8:00 AM58 °FFog.2 mph86%30.06 "Hg16 mi
7:00 AM56 °FFog.3 mph89%30.06 "Hg16 mi
6:00 AM56 °FFog.2 mph93%30.06 "Hg9 mi
4:00 AM57 °FOvercast.1 mph97%30.04 "Hg11 mi
3:00 AM57 °FOvercast.1 mph97%30.04 "Hg0 mi
2:00 AM58 °FOvercast.1 mph96%30.04 "Hg7 mi
1:00 AM58 °FRain. Low clouds.3 mph94%30.04 "Hg1 mi
12:00 AM58 °FDrizzle. Overcast.3 mph90%30.03 "Hg15 mi
Weather by CustomWeather, © 2014

See weather overviewHow to use our weather pages